1998-067UL

Last updated on Fri May 12 2023 00:03:45 GMT+0000 (Coordinated Universal Time)

1 54534U 98067UL 23131.24249912 .02787994 11874-4 13731-2 0 9992 2 54534 51.6155 131.1528 0003456 18.0592 342.0549 16.20244132 25122

Satellite not in orbit